User: anonymous   Login
Location: Caltech
(34.1382°N, 118.1253°W)
Time: 18:59:29
(UTC-07:00)
Language:

CZ-2C R/B - Orbit

View from above orbital plane
View from above orbital plane
View from above satellite
View from above satellite

Ground track
Ground track

The orbit data is extracted from the following two-line orbital elements,

1 36089U 09061B   15123.52982594  .00000226  00000-0  68230-4 0  9991
2 36089 098.0741 148.4896 0080863 274.0307 254.5884 14.49427765289346
Epoch (UTC): 03 May 2015 12:42:56
Eccentricity: 0.0080863
inclination: 98.0741°
perigee height: 670 km
apogee height: 785 km
right ascension of ascending node: 148.4896°
argument of perigee: 274.0307°
revolutions per day: 14.49427765
mean anomaly at epoch: 254.5884°
orbit number at epoch: 28934

The dashed part of the orbit path shows where the satellite is in the earth's shadow,  

DLR